CW3999 Weather Reports


Display with metric or nautical units.
time (UTC)temp
F
wind
direction
speed
MPH
gust
MPH
rain 1hr
in
rain 24hr
in
rain mn
in
humidity
%
barometer
mb
20260901071604 62 134 0.0 0.0 0.00 0.00 0.00 100 1008.0
20260901070602 63 305 0.0 0.0 0.00 0.00 0.00 100 1007.8
20260901070103 64 305 0.0 0.0 0.00 0.00 0.00 100 1007.8
20260901065603 64 305 0.0 0.0 0.00 0.00 0.00 100 1007.7
20260901064603 65 305 0.0 0.0 0.00 0.00 0.00 11 1007.5
20260901064103 65 305 0.0 0.0 0.00 0.00 0.00 13 1007.4
20260901063604 66 305 0.0 0.0 0.00 0.00 0.00 16 1007.4
20260901062103 66 305 0.0 0.0 0.00 0.00 0.00 23 1007.3
20260901061043 67 305 0.0 0.0 0.00 0.00 0.00 27 1007.0
20260901060539 68 305 0.0 0.0 0.00 0.00 0.00 29 1007.0
20260901060040 68 305 0.0 0.0 0.00 0.00 0.00 31 1007.0
20260901055531 68 305 0.0 0.0 0.00 0.00 0.00 31 1006.8
20260901055030 69 305 0.0 0.0 0.00 0.00 0.00 32 1006.9
20260901054529 69 305 0.0 0.0 0.00 0.00 0.00 32 1006.8
20260901053528 69 305 0.0 0.0 0.00 0.00 0.00 34 1006.7
20260901053030 69 305 0.0 0.0 0.00 0.00 0.00 35 1006.6
20260901052524 70 305 0.0 0.0 0.00 0.00 0.00 35 1006.6
20260901051008 70 305 0.0 0.0 0.00 0.00 0.00 37 1006.6
20260901050503 70 305 0.0 0.0 0.00 0.00 0.00 38 1006.5
20260901050002 71 305 0.0 0.0 0.00 0.00 0.00 39 1006.6
20260901045502 71 305 0.0 0.0 0.00 0.00 0.00 39 1006.5
20260901045004 71 305 0.0 0.0 0.00 0.00 0.00 40 1006.4
20260901044505 71 305 0.0 0.0 0.00 0.00 0.00 40 1006.4
20260901044003 71 305 0.0 0.0 0.00 0.00 0.00 41 1006.4
20260901043004 72 305 0.0 0.0 0.00 0.00 0.00 43 1006.2
20260901042504 72 306 0.0 0.0 0.00 0.00 0.00 44 1006.2
20260901042002 73 306 0.0 0.0 0.00 0.00 0.00 44 1006.2
20260901041504 73 306 0.0 0.0 0.00 0.00 0.00 45 1006.1
20260901041004 73 306 0.0 0.0 0.00 0.00 0.00 45 1006.1
20260901040503 74 306 0.0 0.0 0.00 0.00 0.00 45 1005.9
20260901040005 74 306 0.0 0.0 0.00 0.00 0.00 45 1005.9
20260901035504 74 306 0.0 0.0 0.00 0.00 0.00 45 1005.8
20260901035008 74 306 0.0 0.0 0.00 0.00 0.00 45 1005.8
20260901033500 75 288 0.0 0.0 0.00 0.00 0.00 46 1005.5
20260901033002 75 292 0.0 0.0 0.00 0.00 0.00 47 1005.4
20260901032500 75 314 0.0 0.0 0.00 0.00 0.00 48 1005.3
20260901032002 75 327 0.0 0.0 0.00 0.00 0.00 48 1005.2
20260901031502 75 53 0.0 0.0 0.00 0.00 0.00 48 1005.0
20260901031005 76 53 0.0 0.0 0.00 0.00 0.00 48 1005.0
20260901030503 76 53 0.0 0.0 0.00 0.00 0.00 48 1005.0
20260901025510 77 53 0.0 0.0 0.00 0.00 0.00 47 1004.9
20260901025001 77 53 0.0 0.0 0.00 0.00 0.00 47 1004.9
20260901024502 78 53 0.0 0.0 0.00 0.00 0.00 47 1004.9
20260901024002 78 53 0.0 0.0 0.00 0.00 0.00 47 1004.9
20260901023502 78 53 0.0 0.0 0.00 0.00 0.00 47 1004.8
20260901023002 78 53 0.0 0.0 0.00 0.00 0.00 46 1004.8
20260901022502 78 53 0.0 0.0 0.00 0.00 0.00 46 1004.8
20260901022004 79 51 0.0 0.0 0.00 0.00 0.00 45 1004.9
20260901021503 80 51 0.0 0.0 0.00 0.00 0.00 45 1004.9
20260901021004 80 51 0.0 0.0 0.00 0.00 0.00 45 1004.8
20260901020502 80 51 0.0 0.0 0.00 0.00 0.00 45 1004.9
20260901020002 80 51 0.0 0.0 0.00 0.00 0.00 44 1005.0
20260901015503 81 51 0.0 0.0 0.00 0.00 0.00 44 1004.9
20260901015000 81 51 0.0 0.0 0.00 0.00 0.00 43 1004.9
20260901014502 81 194 0.0 0.0 0.00 0.00 0.00 43 1004.8
20260901014000 81 196 0.0 0.0 0.00 0.00 0.00 43 1004.8
20260901013452 82 196 0.0 0.0 0.00 0.00 0.00 42 1004.8
20260901012951 82 196 0.0 0.0 0.00 0.00 0.00 42 1004.8
20260901012435 82 196 0.0 0.0 0.00 0.00 0.00 41 1004.8
20260901011931 82 192 0.0 0.0 0.00 0.00 0.00 42 1004.9
20260901011431 82 173 0.0 0.0 0.00 0.00 0.00 43 1004.9
20260901010932 82 173 0.0 0.0 0.00 0.00 0.00 42 1004.9
20260901010429 83 136 0.0 0.0 0.00 0.00 0.00 42 1004.9
20260901005929 83 136 0.0 0.0 0.00 0.00 0.00 41 1004.9
20260901005429 83 61 0.0 0.0 0.00 0.00 0.00 39 1004.9
20260901004930 83 61 0.0 0.0 0.00 0.00 0.00 39 1004.9
20260901004428 83 61 0.0 0.0 0.00 0.00 0.00 38 1004.9
20260901003930 83 61 0.0 0.0 0.00 0.00 0.00 38 1004.9
20260901003431 84 61 0.0 0.0 0.00 0.00 0.00 38 1004.9
20260901002929 84 61 0.0 0.0 0.00 0.00 0.00 35 1004.9
20260901002430 84 61 0.0 0.0 0.00 0.00 0.00 36 1004.9
20260901001929 84 61 0.0 0.0 0.00 0.00 0.00 34 1005.0
20260901001432 85 61 0.0 0.0 0.00 0.00 0.00 35 1005.0
20260901000436 85 0 0.0 0.0 0.00 0.00 0.00 35 1005.0
20260831235415 85 0 0.0 0.0 0.00 0.00 0.00 35 1005.1
20260831234914 85 0 1.0 5.0 0.00 0.00 0.00 32 1005.2
20260831234416 86 0 1.0 5.0 0.00 0.00 0.00 33 1005.2
20260831233916 86 336 0.0 5.0 0.00 0.00 0.00 32 1005.2
20260831233416 86 271 0.0 3.0 0.00 0.00 0.00 33 1005.2
20260831232912 87 271 1.0 6.0 0.00 0.00 0.00 33 1005.2
20260831231912 87 178 0.0 3.0 0.00 0.00 0.00 32 1005.2
20260831231414 87 178 0.0 3.0 0.00 0.00 0.00 32 1005.3
20260831230904 88 178 0.0 3.0 0.00 0.00 0.00 32 1005.4
20260831230404 88 178 0.0 2.0 0.00 0.00 0.00 32 1005.3
20260831225903 87 177 0.0 2.0 0.00 0.00 0.00 33 1005.4
20260831225401 87 177 0.0 2.0 0.00 0.00 0.00 32 1005.5
20260831224902 87 177 0.0 2.0 0.00 0.00 0.00 34 1005.6
20260831224403 87 177 0.0 3.0 0.00 0.00 0.00 33 1005.6
20260831223902 87 177 0.0 3.0 0.00 0.00 0.00 34 1005.7
20260831223402 87 177 0.0 4.0 0.00 0.00 0.00 33 1005.8
20260831222900 86 177 0.0 4.0 0.00 0.00 0.00 35 1005.8
20260831222404 86 178 0.0 3.0 0.00 0.00 0.00 33 1005.8
20260831221903 85 178 0.0 3.0 0.00 0.00 0.00 36 1005.9
20260831221409 85 125 0.0 2.0 0.00 0.00 0.00 35 1005.9
20260831220903 85 126 0.0 5.0 0.00 0.00 0.00 35 1006.0
20260831220403 84 125 0.0 5.0 0.00 0.00 0.00 35 1006.0
20260831215904 84 94 0.0 4.0 0.00 0.00 0.00 37 1006.1
20260831215402 85 116 0.0 4.0 0.00 0.00 0.00 38 1006.2
20260831214902 84 5 0.0 4.0 0.00 0.00 0.00 38 1006.1
20260831213904 84 185 0.0 3.0 0.00 0.00 0.00 39 1006.2
20260831213359 84 185 0.0 3.0 0.00 0.00 0.00 39 1006.2
20260831212852 84 185 0.0 5.0 0.00 0.00 0.00 37 1006.3
20260831212344 84 203 0.0 5.0 0.00 0.00 0.00 38 1006.4
20260831211835 84 126 0.0 3.0 0.00 0.00 0.00 38 1006.5
20260831210836 83 188 0.0 3.0 0.00 0.00 0.00 39 1006.5
20260831210331 82 188 0.0 3.0 0.00 0.00 0.00 39 1006.6
20260831205831 82 189 0.0 0.0 0.00 0.00 0.00 39 1006.7
20260831205331 81 189 0.0 0.0 0.00 0.00 0.00 40 1006.8
20260831204831 80 189 0.0 0.0 0.00 0.00 0.00 41 1006.8
20260831204330 80 189 0.0 2.0 0.00 0.00 0.00 40 1006.8
20260831203830 80 189 0.0 2.0 0.00 0.00 0.00 40 1006.9
20260831203331 81 190 0.0 0.0 0.00 0.00 0.00 39 1007.0
20260831202829 80 348 0.0 0.0 0.00 0.00 0.00 41 1007.0
20260831202328 80 347 0.0 0.0 0.00 0.00 0.00 41 1007.1
20260831200328 78 348 0.0 0.0 0.00 0.00 0.00 41 1007.4
20260831195825 78 348 0.0 0.0 0.00 0.00 0.00 40 1007.5
20260831195315 78 348 0.0 0.0 0.00 0.00 0.00 41 1007.6
20260831194316 77 348 0.0 0.0 0.00 0.00 0.00 40 1007.6
20260831193316 77 78 0.0 0.0 0.00 0.00 0.00 40 1007.6
20260831192808 76 65 0.0 4.0 0.00 0.00 0.00 40 1007.8
20260831192308 75 65 0.0 5.0 0.00 0.00 0.00 40 1007.9
20260831191808 75 74 2.0 7.0 0.00 0.00 0.00 40 1008.0
20260831191310 75 21 3.0 7.0 0.00 0.00 0.00 40 1008.1
20260831190804 75 340 2.0 8.0 0.00 0.00 0.00 40 1008.1
20260831190303 75 330 0.0 8.0 0.00 0.00 0.00 39 1008.2
20260831185803 74 5 0.0 0.0 0.00 0.00 0.00 39 1008.4
20260831185306 74 112 0.0 0.0 0.00 0.00 0.00 38 1008.4
20260831184802 73 21 0.0 0.0 0.00 0.00 0.00 38 1008.4
20260831184301 72 21 0.0 0.0 0.00 0.00 0.00 38 1008.6
20260831183802 72 30 0.0 0.0 0.00 0.00 0.00 38 1008.5
20260831182802 71 36 0.0 0.0 0.00 0.00 0.00 37 1008.7
20260831182305 71 36 0.0 0.0 0.00 0.00 0.00 38 1008.7
20260831181303 71 282 0.0 0.0 0.00 0.00 0.00 37 1008.9
20260831180803 70 277 0.0 0.0 0.00 0.00 0.00 37 1009.0
20260831180302 71 276 0.0 0.0 0.00 0.00 0.00 36 1009.0
20260831175804 71 275 0.0 0.0 0.00 0.00 0.00 36 1009.0
20260831175306 71 275 0.0 0.0 0.00 0.00 0.00 35 1009.1
20260831174800 71 275 0.0 0.0 0.00 0.00 0.00 33 1009.1
20260831174300 71 275 0.0 0.0 0.00 0.00 0.00 32 1009.1
20260831173756 70 275 0.0 0.0 0.00 0.00 0.00 31 1009.2
20260831173244 70 275 0.0 0.0 0.00 0.00 0.00 29 1009.3
20260831172240 68 275 0.0 0.0 0.00 0.00 0.00 26 1009.2
20260831171740 68 276 0.0 0.0 0.00 0.00 0.00 24 1009.4
20260831171236 68 276 0.0 0.0 0.00 0.00 0.00 22 1009.4
20260831170735 67 276 0.0 0.0 0.00 0.00 0.00 18 1009.4
20260831165231 65 276 0.0 0.0 0.00 0.00 0.00 11 1009.6
20260831164230 65 276 0.0 0.0 0.00 0.00 0.00 3 1009.7
20260831163730 65 276 0.0 0.0 0.00 0.00 0.00 100 1009.7
20260831163231 64 276 0.0 0.0 0.00 0.00 0.00 100 1009.8
20260831162729 63 276 0.0 0.0 0.00 0.00 0.00 100 1009.8
20260831162229 62 276 0.0 0.0 0.00 0.00 0.00 100 1009.8
20260831161729 62 276 0.0 0.0 0.00 0.00 0.00 100 1009.8
20260831161230 61 276 0.0 0.0 0.00 0.00 0.00 100 1009.9
20260831160730 60 276 0.0 0.0 0.00 0.00 0.00 100 1009.9
20260831160231 59 276 0.0 0.0 0.00 0.00 0.00 100 1010.0
20260831155730 58 276 0.0 0.0 0.00 0.00 0.00 100 1010.0
20260831155229 57 276 0.0 0.0 0.00 0.00 0.00 100 1010.0
20260831154230 56 276 0.0 0.0 0.00 0.00 0.00 100 1010.0
20260831153730 56 276 0.0 0.0 0.00 0.00 0.00 100 1010.1
20260831153230 55 276 0.0 0.0 0.00 0.00 0.00 100 1010.1
20260831152230 54 276 0.0 0.0 0.00 0.00 0.00 100 1010.1
20260831151729 54 276 0.0 0.0 0.00 0.00 0.00 100 1010.2
20260831151230 53 276 0.0 0.0 0.00 0.00 0.00 100 1010.2
20260831150231 52 17 0.0 0.0 0.00 0.00 0.00 100 1010.3
20260831145732 52 17 0.0 0.0 0.00 0.00 0.00 100 1010.3
20260831145231 52 17 0.0 0.0 0.00 0.00 0.00 100 1010.3
20260831144728 51 17 0.0 0.0 0.00 0.00 0.00 100 1010.3
20260831144231 51 17 0.0 0.0 0.00 0.00 0.00 100 1010.3
20260831143230 51 17 0.0 0.0 0.00 0.00 0.00 100 1010.3
20260831142729 51 17 0.0 0.0 0.00 0.00 0.00 100 1010.3
20260831142232 51 17 0.0 0.0 0.00 0.00 0.00 100 1010.3
20260831141218 50 17 0.0 0.0 0.00 0.00 0.00 100 1010.2
20260831140711 50 17 0.0 0.0 0.00 0.00 0.00 100 1010.3
20260831140204 50 17 0.0 0.0 0.00 0.00 0.00 100 1010.4
20260831135703 50 17 0.0 0.0 0.00 0.00 0.00 100 1010.3
20260831135204 50 17 0.0 0.0 0.00 0.00 0.00 100 1010.2
20260831134703 50 17 0.0 0.0 0.00 0.00 0.00 100 1010.2
20260831132702 50 17 0.0 0.0 0.00 0.00 0.00 100 1010.4
20260831132202 51 17 0.0 0.0 0.00 0.00 0.00 100 1010.4
20260831131203 51 17 0.0 0.0 0.00 0.00 0.00 100 1010.4
20260831130703 51 17 0.0 0.0 0.00 0.00 0.00 100 1010.5
20260831130144 51 17 0.0 0.0 0.00 0.00 0.00 100 1010.5
20260831125629 51 17 0.0 0.0 0.00 0.00 0.00 100 1010.5
20260831125129 51 17 0.0 0.0 0.00 0.00 0.00 100 1010.5
20260831124631 51 17 0.0 0.0 0.00 0.00 0.00 100 1010.5
20260831124130 51 17 0.0 0.0 0.00 0.00 0.00 100 1010.5
20260831123628 51 17 0.0 0.0 0.00 0.00 0.00 100 1010.5
20260831123130 51 17 0.0 0.0 0.00 0.00 0.00 100 1010.5
20260831122631 51 17 0.0 0.0 0.00 0.00 0.00 100 1010.6
20260831122130 51 17 0.0 0.0 0.00 0.00 0.00 100 1010.6
20260831121629 51 17 0.0 0.0 0.00 0.00 0.00 100 1010.6
20260831120631 51 17 0.0 0.0 0.00 0.00 0.00 100 1010.7
20260831120128 51 17 0.0 0.0 0.00 0.00 0.00 100 1010.8
20260831115620 51 17 0.0 0.0 0.00 0.00 0.00 100 1010.8
20260831115102 51 17 0.0 0.0 0.00 0.00 0.00 100 1010.8
20260831114603 51 17 0.0 0.0 0.00 0.00 0.00 100 1010.9
20260831114102 52 17 0.0 0.0 0.00 0.00 0.00 100 1010.9
20260831113601 52 17 0.0 0.0 0.00 0.00 0.00 100 1011.0
20260831113102 52 17 0.0 0.0 0.00 0.00 0.00 100 1011.0
20260831112602 52 17 0.0 0.0 0.00 0.00 0.00 100 1010.9
20260831111602 52 17 0.0 0.0 0.00 0.00 0.00 100 1011.0
20260831110603 52 17 0.0 0.0 0.00 0.00 0.00 100 1011.1
20260831110056 52 17 0.0 0.0 0.00 0.00 0.00 100 1011.1
20260831105548 53 17 0.0 0.0 0.00 0.00 0.00 100 1011.0
20260831105040 53 17 0.0 0.0 0.00 0.00 0.00 100 1011.0
20260831104530 53 17 0.0 0.0 0.00 0.00 0.00 100 1011.0
20260831104030 53 17 0.0 0.0 0.00 0.00 0.00 100 1011.0
20260831103028 53 17 0.0 0.0 0.00 0.00 0.00 100 1011.0
20260831102530 53 17 0.0 0.0 0.00 0.00 0.00 100 1011.1
20260831102030 53 17 0.0 0.0 0.00 0.00 0.00 100 1011.1
20260831101531 53 17 0.0 0.0 0.00 0.00 0.00 100 1011.2
20260831101030 53 17 0.0 0.0 0.00 0.00 0.00 100 1011.3
20260831100524 54 17 0.0 0.0 0.00 0.00 0.00 100 1011.3
20260831100020 54 17 0.0 0.0 0.00 0.00 0.00 100 1011.5
20260831095511 54 17 0.0 0.0 0.00 0.00 0.00 100 1011.6
20260831095012 54 17 0.0 0.0 0.00 0.00 0.00 100 1011.7
20260831094508 55 17 0.0 0.0 0.00 0.00 0.00 100 1011.7
20260831094003 55 17 0.0 0.0 0.00 0.00 0.00 100 1011.8
20260831093003 55 17 0.0 0.0 0.00 0.00 0.00 100 1011.8
20260831092502 55 17 0.0 0.0 0.00 0.00 0.00 100 1011.8
20260831092002 56 17 0.0 0.0 0.00 0.00 0.00 100 1011.9
20260831091501 56 14 0.0 0.0 0.00 0.00 0.00 100 1011.9
20260831091001 56 333 0.0 0.0 0.00 0.00 0.00 100 1011.9
20260831090501 56 333 0.0 0.0 0.00 0.00 0.00 100 1012.0
20260831085959 56 333 0.0 0.0 0.00 0.00 0.00 100 1012.0
20260831085500 56 333 0.0 0.0 0.00 0.00 0.00 100 1012.0
20260831084947 56 333 0.0 0.0 0.00 0.00 0.00 100 1012.1
20260831083931 57 333 0.0 0.0 0.00 0.00 0.00 100 1012.2
20260831082930 57 333 0.0 0.0 0.00 0.00 0.00 100 1012.2
20260831082430 57 333 0.0 0.0 0.00 0.00 0.00 100 1012.2
20260831081930 58 333 0.0 0.0 0.00 0.00 0.00 100 1012.2
20260831081430 58 333 0.0 0.0 0.00 0.00 0.00 100 1012.4
20260831080931 58 333 0.0 0.0 0.00 0.00 0.00 100 1012.5
20260831080431 58 333 0.0 0.0 0.00 0.00 0.00 100 1012.6
20260831075416 59 333 0.0 0.0 0.00 0.00 0.00 100 1012.6
20260831074416 59 333 0.0 0.0 0.00 0.00 0.00 100 1012.6
20260831073912 59 333 0.0 0.0 0.00 0.00 0.00 100 1012.5
20260831073408 60 333 0.0 0.0 0.00 0.00 0.00 100 1012.6
20260831072902 60 333 0.0 0.0 0.00 0.00 0.00 100 1012.6
20260831072402 60 333 0.0 0.0 0.00 0.00 0.00 100 1012.7